datetime,flow
1921-03-21,233.0
1921-03-22,229.0
1921-03-23,229.0
1921-03-24,227.0
1921-03-25,214.0
1921-03-26,199.0
1921-03-27,183.0
1921-03-28,175.0
1921-03-29,183.0
1921-03-30,189.0
1921-03-31,205.0
1921-04-01,244.0
1921-04-02,319.0
1921-04-03,422.0
1921-04-04,520.0
1921-04-05,481.0
1921-04-06,419.0
1921-04-07,327.0
1921-04-08,282.0
1921-04-09,264.0
1921-04-10,249.0
1921-04-11,259.0
1921-04-12,319.0
1921-04-13,399.0
1921-04-14,475.0
1921-04-15,411.0
1921-04-16,360.0
1921-04-17,332.0
1921-04-18,332.0
1921-04-19,374.0
1921-04-20,388.0
1921-04-21,366.0
1921-04-22,363.0
1921-04-23,454.0
1921-04-24,425.0
1921-04-25,380.0
1921-04-26,352.0
1921-04-27,322.0
1921-04-28,352.0
1921-04-29,385.0
1921-04-30,472.0
1921-05-01,598.0
1921-05-02,854.0
1921-05-03,960.0
1921-05-04,1060.0
1921-05-05,1150.0
1921-05-06,1130.0
1921-05-07,1010.0
1921-05-08,794.0
1921-05-09,655.0
1921-05-10,634.0
1921-05-11,749.0
1921-05-12,870.0
1921-05-13,945.0
1921-05-14,1040.0
1921-05-15,1120.0
1921-05-16,1200.0
1921-05-17,1210.0
1921-05-18,1060.0
1921-05-19,957.0
1921-05-20,791.0
1921-05-21,702.0
1921-05-22,699.0
1921-05-23,741.0
1921-05-24,779.0
1921-05-25,757.0
1921-05-26,767.0
1921-05-27,853.0
1921-05-28,895.0
1921-05-29,869.0
1921-05-30,821.0
1921-05-31,731.0
1921-06-01,649.0
1921-06-02,602.0
1921-06-03,546.0
1921-06-04,543.0
1921-06-05,525.0
1921-06-06,501.0
1921-06-07,468.0
1921-06-08,448.0
1921-06-09,419.0
1921-06-10,386.0
1921-06-11,359.0
1921-06-12,329.0
1921-06-13,304.0
1921-06-14,284.0
1921-06-15,264.0
1921-06-16,246.0
1921-06-17,235.0
1921-06-18,226.0
1921-06-19,217.0
1921-06-20,209.0
1921-06-21,200.0
1921-06-22,192.0
1921-06-23,188.0
1921-06-24,182.0
1921-06-25,174.0
1921-06-26,164.0
1921-06-27,154.0
1921-06-28,154.0
1921-06-29,148.0
1921-06-30,141.0
1921-07-01,135.0
1921-07-02,130.0
1921-07-03,126.0
1921-07-04,123.0
1921-07-05,117.0
1921-07-06,112.0
1921-07-07,110.0
1921-07-08,105.0
1921-07-09,100.0
1921-07-10,99.0
1921-07-11,96.0
1921-07-12,94.0
1921-07-13,92.0
1921-07-14,92.0
1921-07-15,92.0
1921-07-16,91.0
1921-07-17,89.0
1921-07-18,89.0
1921-07-19,89.0
1921-07-20,84.0
1921-07-21,84.0
1921-07-22,83.0
1921-07-23,82.0
1921-07-24,78.0
1921-07-25,77.0
1921-07-26,76.0
1921-07-27,76.0
1921-07-28,74.0
1921-07-29,72.0
1921-07-30,71.0
1921-07-31,72.0
1921-08-01,72.0
1921-08-02,72.0
1921-08-03,70.0
1921-08-04,66.0
1921-08-05,66.0
1921-08-06,65.0
1921-08-07,65.0
1921-08-08,65.0
1921-08-09,65.0
1921-08-10,64.0
1921-08-11,62.0
1921-08-12,62.0
1921-08-13,66.0
1921-08-14,66.0
1921-08-15,62.0
1921-08-16,60.0
1921-08-17,60.0
1921-08-18,58.0
1921-08-19,58.0
1921-08-20,58.0
1921-08-21,56.0
1921-08-22,59.0
1921-08-23,59.0
1921-08-24,60.0
1921-08-25,60.0
1921-08-26,58.0
1921-08-27,58.0
1921-08-28,58.0
1921-08-29,56.0
1921-08-30,56.0
1921-08-31,60.0
1921-09-01,59.0
1921-09-02,60.0
1921-09-03,62.0
1921-09-04,59.0
1921-09-05,58.0
1921-09-06,55.0
1921-09-07,55.0
1921-09-08,55.0
1921-09-09,56.0
1921-09-10,55.0
1921-09-11,56.0
1921-09-12,55.0
1921-09-13,55.0
1921-09-14,55.0
1921-09-15,55.0
1921-09-16,55.0
1921-09-17,55.0
1921-09-18,55.0
1921-09-19,55.0
1921-09-20,55.0
1921-09-21,55.0
1921-09-22,55.0
1921-09-23,55.0
1921-09-24,55.0
1921-09-25,55.0
1921-09-26,55.0
1921-09-27,55.0
1921-09-28,53.0
1921-09-29,55.0
1921-09-30,53.0
1921-10-01,53.0
1921-10-02,53.0
1921-10-03,52.0
1921-10-04,52.0
1921-10-05,52.0
1921-10-06,52.0
1921-10-07,53.0
1921-10-08,53.0
1921-10-09,53.0
1921-10-10,53.0
1921-10-11,53.0
1921-10-12,53.0
1921-10-13,53.0
1921-10-14,53.0
1921-10-15,53.0
1921-10-16,52.0
1921-10-17,52.0
1921-10-18,52.0
1921-10-19,52.0
1921-10-20,52.0
1921-10-21,52.0
1921-10-22,52.0
1921-10-23,53.0
1921-10-24,67.0
1921-10-25,57.0
1921-10-26,55.0
1921-10-27,55.0
1921-10-28,54.0
1921-10-29,53.0
1921-10-30,53.0
1921-10-31,53.0
1921-11-01,53.0
1921-11-02,53.0
1921-11-03,53.0
1921-11-04,53.0
1921-11-05,53.0
1921-11-06,53.0
1921-11-07,53.0
1921-11-08,52.0
1921-11-09,52.0
1921-11-10,52.0
1921-11-11,53.0
1921-11-12,52.0
1921-11-13,53.0
1921-11-14,53.0
1921-11-15,53.0
1921-11-16,54.0
1921-11-17,53.0
1921-11-18,52.0
1921-11-19,54.0
1921-11-20,54.0
1921-11-21,56.0
1921-11-22,58.0
1921-11-23,60.0
1921-11-24,57.0
1921-11-25,56.0
1921-11-26,57.0
1921-11-27,56.0
1921-11-28,57.0
1921-11-29,56.0
1921-11-30,58.0
1921-12-01,70.0
1921-12-02,63.0
1921-12-03,58.0
1921-12-04,55.0
1921-12-05,49.0
1921-12-06,48.0
1921-12-07,48.0
1921-12-08,48.0
1921-12-09,49.0
1921-12-10,49.0
1921-12-11,50.0
1921-12-12,50.0
1921-12-13,50.0
1921-12-14,50.0
1921-12-15,50.0
1921-12-16,51.0
1921-12-17,55.0
1921-12-18,55.0
1921-12-19,55.0
1921-12-20,55.0
1921-12-21,55.0
1921-12-22,55.0
1921-12-23,55.0
1921-12-24,55.0
1921-12-25,55.0
1921-12-26,55.0
1921-12-27,55.0
1921-12-28,55.0
1921-12-29,55.0
1921-12-30,55.0
1921-12-31,55.0
1922-01-01,60.0
1922-01-02,60.0
1922-01-03,60.0
1922-01-04,60.0
1922-01-05,60.0
1922-01-06,60.0
1922-01-07,58.0
1922-01-08,58.0
1922-01-09,58.0
1922-01-10,58.0
1922-01-11,55.0
1922-01-12,52.0
1922-01-13,52.0
1922-01-14,52.0
1922-01-15,52.0
1922-01-16,53.0
1922-01-17,55.0
1922-01-18,54.0
1922-01-19,50.0
1922-01-20,50.0
1922-01-21,50.0
1922-01-22,50.0
1922-01-23,50.0
1922-01-24,50.0
1922-01-25,50.0
1922-01-26,50.0
1922-01-27,50.0
1922-01-28,50.0
1922-01-29,50.0
1922-01-30,50.0
1922-01-31,50.0
1922-02-01,50.0
1922-02-02,50.0
1922-02-03,50.0
1922-02-04,50.0
1922-02-05,50.0
1922-02-06,50.0
1922-02-07,50.0
1922-02-08,50.0
1922-02-09,50.0
1922-02-10,50.0
1922-02-11,50.0
1922-02-12,50.0
1922-02-13,50.0
1922-02-14,50.0
1922-02-15,50.0
1922-02-16,55.0
1922-02-17,55.0
1922-02-18,55.0
1922-02-19,57.0
1922-02-20,58.0
1922-02-21,60.0
1922-02-22,61.0
1922-02-23,60.0
1922-02-24,60.0
1922-02-25,61.0
1922-02-26,61.0
1922-02-27,58.0
1922-02-28,52.0
1922-03-01,54.0
1922-03-02,56.0
1922-03-03,58.0
1922-03-04,56.0
1922-03-05,57.0
1922-03-06,57.0
1922-03-07,55.0
1922-03-08,55.0
1922-03-09,55.0
1922-03-10,55.0
1922-03-11,55.0
1922-03-12,55.0
1922-03-13,54.0
1922-03-14,55.0
1922-03-15,61.0
1922-03-16,76.0
1922-03-17,83.0
1922-03-18,83.0
1922-03-19,88.0
1922-03-20,100.0
1922-03-21,123.0
1922-03-22,156.0
1922-03-23,215.0
1922-03-24,281.0
1922-03-25,219.0
1922-03-26,194.0
1922-03-27,186.0
1922-03-28,174.0
1922-03-29,145.0
1922-03-30,137.0
1922-03-31,135.0
1922-04-01,133.0
1922-04-02,154.0
1922-04-03,178.0
1922-04-04,202.0
1922-04-05,215.0
1922-04-06,204.0
1922-04-07,202.0
1922-04-08,200.0
1922-04-09,174.0
1922-04-10,156.0
1922-04-11,148.0
1922-04-12,135.0
1922-04-13,124.0
1922-04-14,123.0
1922-04-15,117.0
1922-04-16,114.0
1922-04-17,110.0
1922-04-18,104.0
1922-04-19,105.0
1922-04-20,123.0
1922-04-21,184.0
1922-04-22,284.0
1922-04-23,388.0
1922-04-24,472.0
1922-04-25,502.0
1922-04-26,565.0
1922-04-27,607.0
1922-04-28,655.0
1922-04-29,634.0
1922-04-30,655.0
1922-05-01,601.0
1922-05-02,628.0
1922-05-03,716.0
1922-05-04,800.0
1922-05-05,1060.0
1922-05-06,1220.0
1922-05-07,1200.0
1922-05-08,1180.0
1922-05-09,905.0
1922-05-10,696.0
1922-05-11,556.0
1922-05-12,485.0
1922-05-13,454.0
1922-05-14,516.0
1922-05-15,624.0
1922-05-16,760.0
1922-05-17,950.0
1922-05-18,1100.0
1922-05-19,1080.0
1922-05-20,1060.0
1922-05-21,1020.0
1922-05-22,968.0
1922-05-23,959.0
1922-05-24,980.0
1922-05-25,1010.0
1922-05-26,950.0
1922-05-27,760.0
1922-05-28,692.0
1922-05-29,668.0
1922-05-30,654.0
1922-05-31,606.0
1922-06-01,554.0
1922-06-02,513.0
1922-06-03,485.0
1922-06-04,415.0
1922-06-05,393.0
1922-06-06,370.0
1922-06-07,341.0
1922-06-08,315.0
1922-06-09,290.0
1922-06-10,271.0
1922-06-11,250.0
1922-06-12,237.0
1922-06-13,228.0
1922-06-14,224.0
1922-06-15,213.0
1922-06-16,201.0
1922-06-17,190.0
1922-06-18,178.0
1922-06-19,174.0
1922-06-20,170.0
1922-06-21,162.0
1922-06-22,153.0
1922-06-23,145.0
1922-06-24,136.0
1922-06-25,129.0
1922-06-26,124.0
1922-06-27,118.0
1922-06-28,115.0
1922-06-29,110.0
1922-06-30,105.0
1922-07-01,102.0
1922-07-02,99.0
1922-07-03,96.0
1922-07-04,92.0
1922-07-05,91.0
1922-07-06,91.0
1922-07-07,90.0
1922-07-08,86.0
1922-07-09,85.0
1922-07-10,84.0
1922-07-11,80.0
1922-07-12,79.0
1922-07-13,78.0
1922-07-14,78.0
1922-07-15,76.0
1922-07-16,73.0
1922-07-17,71.0
1922-07-18,69.0
1922-07-19,71.0
1922-07-20,79.0
1922-07-21,79.0
1922-07-22,75.0
1922-07-23,68.0
1922-07-24,66.0
1922-07-25,65.0
1922-07-26,64.0
1922-07-27,64.0
1922-07-28,68.0
1922-07-29,66.0
1922-07-30,65.0
1922-07-31,65.0
1922-08-01,66.0
1922-08-02,68.0
1922-08-03,66.0
1922-08-04,64.0
1922-08-05,63.0
1922-08-06,60.0
1922-08-07,59.0
1922-08-08,58.0
1922-08-09,58.0
1922-08-10,63.0
1922-08-11,59.0
1922-08-12,58.0
1922-08-13,60.0
1922-08-14,63.0
1922-08-15,57.0
1922-08-16,57.0
1922-08-17,57.0
1922-08-18,57.0
1922-08-19,57.0
1922-08-20,55.0
1922-08-21,55.0
1922-08-22,55.0
1922-08-23,57.0
1922-08-24,54.0
1922-08-25,52.0
1922-08-26,52.0
1922-08-27,51.0
1922-08-28,51.0
1922-08-29,53.0
1922-08-30,53.0
1922-08-31,54.0
1922-09-01,55.0
1922-09-02,54.0
1922-09-03,53.0
1922-09-04,52.0
1922-09-05,51.0
1922-09-06,50.0
1922-09-07,50.0
1922-09-08,50.0
1922-09-09,49.0
1922-09-10,49.0
1922-09-11,49.0
1922-09-12,49.0
1922-09-13,48.0
1922-09-14,48.0
1922-09-15,48.0
1922-09-16,48.0
1922-09-17,48.0
1922-09-18,49.0
1922-09-19,50.0
1922-09-20,50.0
1922-09-21,50.0
1922-09-22,51.0
1922-09-23,51.0
1922-09-24,50.0
1922-09-25,49.0
1922-09-26,48.0
1922-09-27,49.0
1922-09-28,51.0
1922-09-29,51.0
1922-09-30,50.0
1922-10-01,49.0
1922-10-02,48.0
1922-10-03,48.0
1922-10-04,48.0
1922-10-05,49.0
1922-10-06,50.0
1922-10-07,50.0
1922-10-08,50.0
1922-10-09,50.0
1922-10-10,50.0
1922-10-11,49.0
1922-10-12,51.0
1922-10-13,52.0
1922-10-14,52.0
1922-10-15,51.0
1922-10-16,51.0
1922-10-17,51.0
1922-10-18,50.0
1922-10-19,50.0
1922-10-20,50.0
1922-10-21,50.0
1922-10-22,50.0
1922-10-23,51.0
1922-10-24,51.0
1922-10-25,50.0
1922-10-26,51.0
1922-10-27,50.0
1922-10-28,52.0
1922-10-29,53.0
1922-10-30,52.0
1922-10-31,52.0
1922-11-01,53.0
1922-11-02,55.0
1922-11-03,54.0
1922-11-04,54.0
1922-11-05,53.0
1922-11-06,52.0
1922-11-07,52.0
1922-11-08,51.0
1922-11-09,51.0
1922-11-10,52.0
1922-11-11,51.0
1922-11-12,51.0
1922-11-13,49.0
1922-11-14,48.0
1922-11-15,49.0
1922-11-16,49.0
1922-11-17,50.0
1922-11-18,50.0
1922-11-19,49.0
1922-11-20,50.0
1922-11-21,50.0
1922-11-22,50.0
1922-11-23,50.0
1922-11-24,50.0
1922-11-25,50.0
1922-11-26,49.0
1922-11-27,49.0
1922-11-28,49.0
1922-11-29,51.0
1922-11-30,51.0
1922-12-01,49.0
1922-12-02,50.0
1922-12-03,50.0
1922-12-04,49.0
1922-12-05,49.0
1922-12-06,49.0
1922-12-07,51.0
1922-12-08,49.0
1922-12-09,46.0
1922-12-10,50.0
1922-12-11,48.0
1922-12-12,48.0
1922-12-13,54.0
1922-12-14,52.0
1922-12-15,50.0
1922-12-16,49.0
1922-12-17,45.0
1922-12-18,47.0
1922-12-19,47.0
1922-12-20,48.0
1922-12-21,45.0
1922-12-22,40.0
1922-12-23,40.0
1922-12-24,41.0
1922-12-25,49.0
1922-12-26,48.0
1922-12-27,48.0
1922-12-28,48.0
1922-12-29,49.0
1922-12-30,48.0
1922-12-31,49.0
1923-01-01,47.0
1923-01-02,46.0
1923-01-03,46.0
1923-01-04,48.0
1923-01-05,49.0
1923-01-06,55.0
1923-01-07,58.0
1923-01-08,53.0
1923-01-09,52.0
1923-01-10,51.0
1923-01-11,51.0
1923-01-12,50.0
1923-01-13,49.0
1923-01-14,43.0
1923-01-15,42.0
1923-01-16,45.0
1923-01-17,51.0
1923-01-18,47.0
1923-01-19,47.0
1923-01-20,48.0
1923-01-21,44.0
1923-01-22,43.0
1923-01-23,48.0
1923-01-24,48.0
1923-01-25,49.0
1923-01-26,51.0
1923-01-27,50.0
1923-01-28,52.0
1923-01-29,53.0
1923-01-30,52.0
1923-01-31,52.0
1923-02-01,51.0
1923-02-02,50.0
1923-02-03,45.0
1923-02-04,45.0
1923-02-05,45.0
1923-02-06,45.0
1923-02-07,45.0
1923-02-08,45.0
1923-02-09,45.0
1923-02-10,45.0
1923-02-11,45.0
1923-02-12,45.0
1923-02-13,45.0
1923-02-14,45.0
1923-02-15,45.0
1923-02-16,45.0
1923-02-17,45.0
1923-02-18,45.0
1923-02-19,41.0
1923-02-20,42.0
1923-02-21,51.0
1923-02-22,58.0
1923-02-23,62.0
1923-02-24,66.0
1923-02-25,66.0
1923-02-26,62.0
1923-02-27,60.0
1923-02-28,60.0
1923-03-01,62.0
1923-03-02,67.0
1923-03-03,66.0
1923-03-04,61.0
1923-03-05,65.0
1923-03-06,62.0
1923-03-07,64.0
1923-03-08,62.0
1923-03-09,62.0
1923-03-10,62.0
1923-03-11,62.0
1923-03-12,60.0
1923-03-13,61.0
1923-03-14,57.0
1923-03-15,58.0
1923-03-16,60.0
1923-03-17,56.0
1923-03-18,57.0
1923-03-19,58.0
1923-03-20,59.0
1923-03-21,58.0
1923-03-22,58.0
1923-03-23,60.0
1923-03-24,64.0
1923-03-25,67.0
1923-03-26,74.0
1923-03-27,81.0
1923-03-28,104.0
1923-03-29,143.0
1923-03-30,182.0
1923-03-31,218.0
1923-04-01,268.0
1923-04-02,242.0
1923-04-03,196.0
1923-04-04,171.0
1923-04-05,173.0
1923-04-06,254.0
1923-04-07,228.0
1923-04-08,206.0
1923-04-09,218.0
1923-04-10,236.0
1923-04-11,282.0
1923-04-12,340.0
1923-04-13,352.0
1923-04-14,348.0
1923-04-15,355.0
1923-04-16,380.0
1923-04-17,442.0
1923-04-18,514.0
1923-04-19,499.0
1923-04-20,392.0
1923-04-21,355.0
1923-04-22,296.0
1923-04-23,246.0
1923-04-24,226.0
1923-04-25,226.0
1923-04-26,246.0
1923-04-27,276.0
1923-04-28,355.0
1923-04-29,442.0
1923-04-30,455.0
1923-05-01,405.0
1923-05-02,430.0
1923-05-03,562.0
1923-05-04,676.0
1923-05-05,860.0
1923-05-06,970.0
1923-05-07,1010.0
1923-05-08,1060.0
1923-05-09,1140.0
1923-05-10,1270.0
1923-05-11,1190.0
1923-05-12,930.0
1923-05-13,770.0
1923-05-14,690.0
1923-05-15,610.0
1923-05-16,800.0
1923-05-17,800.0
1923-05-18,800.0
1923-05-19,800.0
1923-05-20,990.0
1923-05-21,958.0
1923-05-22,880.0
1923-05-23,766.0
1923-05-24,778.0
1923-05-25,750.0
1923-05-26,726.0
1923-05-27,622.0
1923-05-28,526.0
1923-05-29,466.0
1923-05-30,435.0
1923-05-31,402.0
1923-06-01,358.0
1923-06-02,322.0
1923-06-03,310.0
1923-06-04,308.0
1923-06-05,294.0
1923-06-06,282.0
1923-06-07,272.0
1923-06-08,260.0
1923-06-09,254.0
1923-06-10,244.0
1923-06-11,238.0
1923-06-12,228.0
1923-06-13,220.0
1923-06-14,210.0
1923-06-15,202.0
1923-06-16,198.0
1923-06-17,206.0
1923-06-18,186.0
1923-06-19,173.0
1923-06-20,168.0
1923-06-21,166.0
1923-06-22,168.0
1923-06-23,156.0
1923-06-24,143.0
1923-06-25,136.0
1923-06-26,127.0
1923-06-27,132.0
1923-06-28,132.0
1923-06-29,130.0
1923-06-30,127.0
1923-07-01,122.0
1923-07-02,119.0
1923-07-03,114.0
1923-07-04,112.0
1923-07-05,107.0
1923-07-06,104.0
1923-07-07,101.0
1923-07-08,100.0
1923-07-09,99.0
1923-07-10,96.0
1923-07-11,93.0
1923-07-12,90.0
1923-07-13,88.0
1923-07-14,85.0
1923-07-15,83.0
1923-07-16,80.0
1923-07-17,81.0
1923-07-18,78.0
1923-07-19,78.0
1923-07-20,78.0
1923-07-21,81.0
1923-07-22,83.0
1923-07-23,79.0
1923-07-24,79.0
1923-07-25,79.0
1923-07-26,79.0
1923-07-27,76.0
1923-07-28,74.0
1923-07-29,73.0
1923-07-30,72.0
1923-07-31,70.0
1923-08-01,69.0
1923-08-02,67.0
1923-08-03,67.0
1923-08-04,65.0
1923-08-05,65.0
1923-08-06,64.0
1923-08-07,64.0
1923-08-08,63.0
1923-08-09,62.0
1923-08-10,61.0
1923-08-11,60.0
1923-08-12,59.0
1923-08-13,63.0
1923-08-14,63.0
1923-08-15,63.0
1923-08-16,63.0
1923-08-17,63.0
1923-08-18,63.0
1923-08-19,61.0
1923-08-20,60.0
1923-08-21,60.0
1923-08-22,59.0
1923-08-23,59.0
1923-08-24,58.0
1923-08-25,58.0
1923-08-26,57.0
1923-08-27,55.0
1923-08-28,53.0
1923-08-29,52.0
1923-08-30,55.0
1923-08-31,56.0
1923-09-01,55.0
1923-09-02,54.0
1923-09-03,53.0
1923-09-04,52.0
1923-09-05,52.0
1923-09-06,50.0
1923-09-07,49.0
1923-09-08,48.0
1923-09-09,48.0
1923-09-10,49.0
1923-09-11,48.0
1923-09-12,48.0
1923-09-13,49.0
1923-09-14,50.0
1923-09-15,50.0
1923-09-16,49.0
1923-09-17,50.0
1923-09-18,50.0
1923-09-19,50.0
1923-09-20,50.0
1923-09-21,50.0
1923-09-22,49.0
1923-09-23,49.0
1923-09-24,53.0
1923-09-25,52.0
1923-09-26,52.0
1923-09-27,53.0
1923-09-28,54.0
1923-09-29,54.0
1923-09-30,54.0
1923-10-01,53.0
1923-10-02,53.0
1923-10-03,53.0
1923-10-04,56.0
1923-10-05,56.0
1923-10-06,57.0
1923-10-07,59.0
1923-10-08,59.0
1923-10-09,58.0
1923-10-10,57.0
1923-10-11,56.0
1923-10-12,56.0
1923-10-13,55.0
1923-10-14,55.0
1923-10-15,54.0
1923-10-16,54.0
1923-10-17,52.0
1923-10-18,52.0
1923-10-19,50.0
1923-10-20,50.0
1923-10-21,50.0
1923-10-22,52.0
1923-10-23,55.0
1923-10-24,55.0
1923-10-25,53.0
1923-10-26,53.0
1923-10-27,54.0
1923-10-28,55.0
1923-10-29,55.0
1923-10-30,55.0
1923-10-31,56.0
1923-11-01,57.0
1923-11-02,56.0
1923-11-03,57.0
1923-11-04,57.0
1923-11-05,57.0
1923-11-06,57.0
1923-11-07,56.0
1923-11-08,55.0
1923-11-09,53.0
1923-11-10,53.0
1923-11-11,57.0
1923-11-12,55.0
1923-11-13,53.0
1923-11-14,52.0
1923-11-15,50.0
1923-11-16,49.0
1923-11-17,48.0
1923-11-18,47.0
1923-11-19,47.0
1923-11-20,48.0
1923-11-21,48.0
1923-11-22,48.0
1923-11-23,48.0
1923-11-24,48.0
1923-11-25,48.0
1923-11-26,48.0
1923-11-27,48.0
1923-11-28,48.0
1923-11-29,50.0
1923-11-30,54.0
1923-12-01,52.0
1923-12-02,48.0
1923-12-03,49.0
1923-12-04,46.0
1923-12-05,45.0
1923-12-06,49.0
1923-12-07,55.0
1923-12-08,50.0
1923-12-09,45.0
1923-12-10,45.0
1923-12-11,45.0
1923-12-12,45.0
1923-12-13,45.0
1923-12-14,45.0
1923-12-15,45.0
1923-12-16,43.0
1923-12-17,42.0
1923-12-18,42.0
1923-12-19,42.0
1923-12-20,42.0
1923-12-21,43.0
1923-12-22,43.0
1923-12-23,43.0
1923-12-24,42.0
1923-12-25,44.0
1923-12-26,47.0
1923-12-27,42.0
1923-12-28,43.0
1923-12-29,44.0
1923-12-30,45.0
1923-12-31,45.0
1924-01-01,42.0
1924-01-02,42.0
1924-01-03,42.0
1924-01-04,42.0
1924-01-05,42.0
1924-01-06,42.0
1924-01-07,42.0
1924-01-08,42.0
1924-01-09,42.0
1924-01-10,42.0
1924-01-11,42.0
1924-01-12,42.0
1924-01-13,42.0
1924-01-14,42.0
1924-01-15,42.0
1924-01-16,42.0
1924-01-17,42.0
1924-01-18,42.0
1924-01-19,42.0
1924-01-20,42.0
1924-01-21,42.0
1924-01-22,42.0
1924-01-23,42.0
1924-01-24,42.0
1924-01-25,42.0
1924-01-26,42.0
1924-01-27,43.0
1924-01-28,43.0
1924-01-29,43.0
1924-01-30,43.0
1924-01-31,43.0
1924-02-01,43.0
1924-02-02,43.0
1924-02-03,43.0
1924-02-04,45.0
1924-02-05,45.0
1924-02-06,45.0
1924-02-07,45.0
1924-02-08,45.0
1924-02-09,45.0
1924-02-10,48.0
1924-02-11,55.0
1924-02-12,55.0
1924-02-13,55.0
1924-02-14,55.0
1924-02-15,55.0
1924-02-16,55.0
1924-02-17,61.0
1924-02-18,59.0
1924-02-19,59.0
1924-02-20,59.0
1924-02-21,59.0
1924-02-22,59.0
1924-02-23,59.0
1924-02-24,57.0
1924-02-25,59.0
1924-02-26,59.0
1924-02-27,58.0
1924-02-28,58.0
1924-02-29,57.0
1924-03-01,57.0
1924-03-02,60.0
1924-03-03,61.0
1924-03-04,60.0
1924-03-05,58.0
1924-03-06,58.0
1924-03-07,59.0
1924-03-08,56.0
1924-03-09,55.0
1924-03-10,56.0
1924-03-11,55.0
1924-03-12,55.0
1924-03-13,55.0
1924-03-14,56.0
1924-03-15,57.0
1924-03-16,55.0
1924-03-17,54.0
1924-03-18,55.0
1924-03-19,55.0
1924-03-20,56.0
1924-03-21,57.0
1924-03-22,55.0
1924-03-23,55.0
1924-03-24,56.0
1924-03-25,55.0
1924-03-26,57.0
1924-03-27,59.0
1924-03-28,64.0
1924-03-29,64.0
1924-03-30,59.0
1924-03-31,57.0
1924-04-01,64.0
1924-04-02,70.0
1924-04-03,83.0
1924-04-04,93.0
1924-04-05,93.0
1924-04-06,107.0
1924-04-07,140.0
1924-04-08,180.0
1924-04-09,206.0
1924-04-10,202.0
1924-04-11,180.0
1924-04-12,188.0
1924-04-13,242.0
1924-04-14,330.0
1924-04-15,304.0
1924-04-16,226.0
1924-04-17,188.0
1924-04-18,161.0
1924-04-19,161.0
1924-04-20,190.0
1924-04-21,240.0
1924-04-22,312.0
1924-04-23,378.0
1924-04-24,352.0
1924-04-25,286.0
1924-04-26,240.0
1924-04-27,230.0
1924-04-28,244.0
1924-04-29,286.0
1924-04-30,342.0
1924-05-01,410.0
1924-05-02,458.0
1924-05-03,529.0
1924-05-04,584.0
1924-05-05,532.0
1924-05-06,435.0
1924-05-07,395.0
1924-05-08,395.0
1924-05-09,405.0
1924-05-10,410.0
1924-05-11,410.0
1924-05-12,408.0
1924-05-13,400.0
1924-05-14,380.0
1924-05-15,348.0
1924-05-16,332.0
1924-05-17,308.0
1924-05-18,286.0
1924-05-19,272.0
1924-05-20,246.0
1924-05-21,224.0
1924-05-22,208.0
1924-05-23,190.0
1924-05-24,171.0
1924-05-25,162.0
1924-05-26,152.0
1924-05-27,138.0
1924-05-28,128.0
1924-05-29,136.0
1924-05-30,140.0
1924-05-31,133.0
1924-06-01,138.0
1924-06-02,144.0
1924-06-03,152.0
1924-06-04,162.0
1924-06-05,162.0
1924-06-06,156.0
1924-06-07,152.0
1924-06-08,148.0
1924-06-09,138.0
1924-06-10,130.0
1924-06-11,122.0
1924-06-12,116.0
1924-06-13,110.0
1924-06-14,104.0
1924-06-15,100.0
1924-06-16,94.0
1924-06-17,90.0
1924-06-18,89.0
1924-06-19,86.0
1924-06-20,84.0
1924-06-21,81.0
1924-06-22,79.0
1924-06-23,76.0
1924-06-24,74.0
1924-06-25,73.0
1924-06-26,70.0
1924-06-27,68.0
1924-06-28,67.0
1924-06-29,66.0
1924-06-30,65.0
1924-07-01,61.0
1924-07-02,60.0
1924-07-03,59.0
1924-07-04,59.0
1924-07-05,57.0
1924-07-06,58.0
1924-07-07,62.0
1924-07-08,62.0
1924-07-09,58.0
1924-07-10,57.0
1924-07-11,57.0
1924-07-12,57.0
1924-07-13,55.0
1924-07-14,54.0
1924-07-15,52.0
1924-07-16,50.0
1924-07-17,49.0
1924-07-18,49.0
1924-07-19,48.0
1924-07-20,49.0
1924-07-21,49.0
1924-07-22,48.0
1924-07-23,47.0
1924-07-24,46.0
1924-07-25,46.0
1924-07-26,47.0
1924-07-27,46.0
1924-07-28,46.0
1924-07-29,45.0
1924-07-30,44.0
1924-07-31,43.0
1924-08-01,43.0
1924-08-02,43.0
1924-08-03,42.0
1924-08-04,42.0
1924-08-05,42.0
1924-08-06,42.0
1924-08-07,42.0
1924-08-08,42.0
1924-08-09,42.0
1924-08-10,42.0
1924-08-11,40.0
1924-08-12,38.0
1924-08-13,37.0
1924-08-14,40.0
1924-08-15,40.0
1924-08-16,40.0
1924-08-17,38.0
1924-08-18,38.0
1924-08-19,38.0
1924-08-20,43.0
1924-08-21,41.0
1924-08-22,39.0
1924-08-23,39.0
1924-08-24,41.0
1924-08-25,42.0
1924-08-26,41.0
1924-08-27,43.0
1924-08-28,43.0
1924-08-29,42.0
1924-08-30,39.0
1924-08-31,38.0
1924-09-01,37.0
1924-09-02,37.0
1924-09-03,38.0
1924-09-04,38.0
1924-09-05,42.0
1924-09-06,41.0
1924-09-07,38.0
1924-09-08,36.0
1924-09-09,35.0
1924-09-10,36.0
1924-09-11,37.0
1924-09-12,38.0
1924-09-13,39.0
1924-09-14,40.0
1924-09-15,39.0
1924-09-16,38.0
1924-09-17,37.0
1924-09-18,36.0
1924-09-19,37.0
1924-09-20,39.0
1924-09-21,40.0
1924-09-22,40.0
1924-09-23,41.0
1924-09-24,41.0
1924-09-25,42.0
1924-09-26,42.0
1924-09-27,41.0
1924-09-28,41.0
1924-09-29,39.0
1924-09-30,38.0
1924-10-01,36.0
1924-10-02,35.0
1924-10-03,32.0
1924-10-04,32.0
1924-10-05,30.0
1924-10-06,32.0
1924-10-07,34.0
1924-10-08,37.0
1924-10-09,40.0
1924-10-10,43.0
1924-10-11,46.0
1924-10-12,49.0
1924-10-13,48.0
1924-10-14,47.0
1924-10-15,46.0
1924-10-16,45.0
1924-10-17,44.0
1924-10-18,43.0
1924-10-19,42.0
1924-10-20,41.0
1924-10-21,40.0
1924-10-22,39.0
1924-10-23,40.0
1924-10-24,41.0
1924-10-25,42.0
1924-10-26,43.0
1924-10-27,43.0
1924-10-28,44.0
1924-10-29,44.0
1924-10-30,45.0
1924-10-31,45.0
1924-11-01,46.0
1924-11-02,46.0
1924-11-03,45.0
1924-11-04,44.0
1924-11-05,44.0
1924-11-06,43.0
1924-11-07,44.0
1924-11-08,44.0
1924-11-09,44.0
1924-11-10,44.0
1924-11-11,44.0
1924-11-12,43.0
1924-11-13,43.0
1924-11-14,43.0
1924-11-15,42.0
1924-11-16,42.0
1924-11-17,42.0
1924-11-18,42.0
1924-11-19,42.0
1924-11-20,42.0
1924-11-21,42.0
1924-11-22,42.0
1924-11-23,42.0
1924-11-24,42.0
1924-11-25,42.0
1924-11-26,41.0
1924-11-27,40.0
1924-11-28,39.0
1924-11-29,38.0
1924-11-30,38.0
1924-12-01,37.0
1924-12-02,38.0
1924-12-03,39.0
1924-12-04,40.0
1924-12-05,41.0
1924-12-06,42.0
1924-12-07,43.0
1924-12-08,43.0
1924-12-09,43.0
1924-12-10,42.0
1924-12-11,42.0
1924-12-12,41.0
1924-12-13,41.0
1924-12-14,41.0
1924-12-15,41.0
1924-12-16,41.0
1924-12-17,41.0
1924-12-18,40.0
1924-12-19,40.0
1924-12-20,40.0
1924-12-21,40.0
1924-12-22,40.0
1924-12-23,40.0
1924-12-24,40.0
1924-12-25,40.0
1924-12-26,40.0
1924-12-27,40.0
1924-12-28,41.0
1924-12-29,41.0
1924-12-30,41.0
1924-12-31,41.0
1925-01-01,41.0
1925-01-02,41.0
1925-01-03,41.0
1925-01-04,41.0
1925-01-05,41.0
1925-01-06,41.0
1925-01-07,41.0
1925-01-08,42.0
1925-01-09,42.0
1925-01-10,42.0
1925-01-11,42.0
1925-01-12,42.0
1925-01-13,42.0
1925-01-14,43.0
1925-01-15,43.0
1925-01-16,44.0
1925-01-17,44.0
1925-01-18,45.0
1925-01-19,45.0
1925-01-20,44.0
1925-01-21,44.0
1925-01-22,43.0
1925-01-23,43.0
1925-01-24,42.0
1925-01-25,42.0
1925-01-26,42.0
1925-01-27,42.0
1925-01-28,42.0
1925-01-29,43.0
1925-01-30,43.0
1925-01-31,43.0
1925-02-01,43.0
1925-02-02,43.0
1925-02-03,43.0
1925-02-04,45.0
1925-02-05,50.0
1925-02-06,60.0
1925-02-07,75.0
1925-02-08,72.0
1925-02-09,69.0
1925-02-10,66.0
1925-02-11,63.0
1925-02-12,60.0
1925-02-13,57.0
1925-02-14,57.0
1925-02-15,56.0
1925-02-16,55.0
1925-02-17,55.0
1925-02-18,57.0
1925-02-19,59.0
1925-02-20,59.0
1925-02-21,62.0
1925-02-22,62.0
1925-02-23,64.0
1925-02-24,61.0
1925-02-25,60.0
1925-02-26,60.0
1925-02-27,61.0
1925-02-28,61.0
1925-03-01,61.0
1925-03-02,66.0
1925-03-03,73.0
1925-03-04,81.0
1925-03-05,100.0
1925-03-06,119.0
1925-03-07,133.0
1925-03-08,141.0
1925-03-09,116.0
1925-03-10,101.0
1925-03-11,92.0
1925-03-12,88.0
1925-03-13,85.0
1925-03-14,81.0
1925-03-15,80.0
1925-03-16,76.0
1925-03-17,75.0
1925-03-18,70.0
1925-03-19,72.0
1925-03-20,84.0
1925-03-21,107.0
1925-03-22,130.0
1925-03-23,144.0
1925-03-24,119.0
1925-03-25,122.0
1925-03-26,135.0
1925-03-27,140.0
1925-03-28,148.0
1925-03-29,180.0
1925-03-30,234.0
1925-03-31,182.0